Theta_e
344 346 347 349 351 354 349 343 343 347 344 339 338 338 336 331 322 318 317 316 316 316 318 317 314 316 313 313 312 312 312 310 307 309 311 312 312 312 313 315 314 314 314
343 345 347 349 351 347 344 343 346 344 342 340 336 330 325 319 315 312 312 312 311 311 313 314 313 312 312 312 311 310 309 309 306 305 308 308 310 312 313 313 313 313 313
342 345 348 345 339 340 340 340 344 340 333 329 325 321 313 312 310 311 310 310 312 313 313 312 311 311 310 310 309 308 307 307 308 305 305 309 309 311 311 313 312 313 313
340 344 345 337 335 331 330 331 332 327 323 320 319 314 309 308 310 310 311 312 312 312 311 311 310 309 309 309 308 308 308 307 308 307 307 307 308 310 309 306 306 310 310
342 342 332 325 324 323 323 326 322 321 318 315 311 308 311 312 311 313 313 313 312 311 310 309 309 307 305 306 307 308 308 307 306 306 305 305 305 304 302 304 304 305 307
338 325 321 318 317 317 319 318 316 314 312 310 308 310 312 310 302 306 312 313 311 309 308 308 308 306 305 302 302 302 303 305 305 303 302 300 302 301 302 302 302 300 299
322 318 316 315 313 315 316 313 308 307 309 308 309 311 311 310 299 301 305 311 309 308 308 307 306 305 306 306 301 300 300 298 298 304 301 300 300 301 301 301 301 301 301
316 314 313 312 312 313 312 310 310 310 309 309 307 308 308 305 298 299 302 309 307 307 306 306 306 306 303 305 305 305 303 302 300 300 301 301 300 300 300 301 301 302 305
312 311 311 312 311 312 308 308 308 307 306 304 306 307 306 303 297 298 304 307 305 305 305 305 304 303 293 294 301 300 300 300 299 296 295 294 293 294 295 301 300 300 300
310 309 310 309 310 308 308 306 306 306 304 304 305 305 302 302 295 296 303 305 304 303 304 301 294 296 292 292 299 299 298 298 300 302 303 302 301 301 297 301 300 298 296
307 308 306 308 306 305 305 305 304 301 301 301 300 302 303 303 299 294 297 304 303 302 301 300 297 292 291 291 293 296 294 296 300 302 303 303 303 303 303 302 300 296 294
306 305 306 307 305 303 303 304 301 301 298 298 298 298 300 301 297 294 295 297 300 302 300 299 295 290 290 290 294 289 290 294 301 301 301 301 301 301 300 301 302 301 299
304 304 304 303 302 302 302 301 299 298 297 297 297 297 298 300 300 295 294 294 295 299 298 292 290 290 291 293 290 291 294 299 299 299 298 299 300 300 302 303 305 305 304
301 301 302 301 301 301 301 299 299 298 298 298 298 297 297 299 300 301 299 298 294 296 294 293 290 291 290 293 296 296 297 297 296 297 297 298 300 300 300 301 301 302 302
297 297 296 298 299 299 300 300 299 300 298 299 298 298 299 298 298 295 296 297 297 293 294 294 295 295 295 295 296 296 296 296 295 296 296 296 296 297 297 299 301 301 299
293 295 294 294 294 295 295 294 290 291 290 290 291 296 296 292 290 290 289 289 288 289 292 292 292 293 292 292 293 294 295 294 294 295 295 295 295 295 294 296 298 299 298
291 291 291 293 296 296 296 295 291 290 291 290 290 290 291 289 289 288 287 287 287 289 291 290 290 291 291 291 292 292 293 293 295 294 295 295 295 295 294 295 295 296 296
291 292 292 295 295 296 296 296 297 295 294 293 291 291 289 289 288 287 287 288 290 289 289 289 289 289 290 290 290 291 293 293 293 294 294 294 294 294 293 294 294 294 294
293 293 294 294 295 295 297 297 297 296 295 293 293 291 289 288 287 287 288 290 289 288 288 288 288 289 289 289 290 291 292 291 291 293 293 293 294 294 293 294 294 289 290
295 292 293 295 295 296 296 296 295 294 293 293 294 293 293 292 292 291 291 290 288 287 287 287 288 288 288 289 289 290 292 292 292 292 292 292 293 294 293 293 294 293 293
296 296 290 297 296 296 296 296 294 294 293 294 294 293 288 294 292 291 290 289 288 287 287 287 288 288 288 288 289 289 289 291 291 291 292 292 292 292 293 294 294 293 292
297 296 296 295 294 294 294 295 294 294 294 294 294 291 285 294 292 290 289 288 288 287 287 288 287 287 288 288 288 288 288 289 290 290 291 291 291 292 293 293 293 293 292
299 298 297 296 296 291 293 295 295 294 294 294 293 291 292 291 290 289 288 288 288 287 288 288 288 287 288 288 288 288 287 288 289 290 290 291 291 291 292 291 291 291 291
299 298 298 297 296 296 295 295 294 291 294 294 293 293 292 291 290 289 289 289 288 287 288 288 288 287 288 288 288 288 288 287 290 290 290 290 290 290 290 290 290 290 291
299 298 297 297 295 295 295 295 294 294 293 293 293 293 292 291 290 290 290 290 289 288 287 288 288 287 287 287 287 287 283 282 286 283 291 290 290 290 289 289 289 289 289
297 297 296 297 295 294 295 294 294 294 293 293 293 293 292 291 291 291 290 290 290 288 287 288 287 287 287 287 285 282 282 282 285 283 289 290 289 288 288 288 288 288 288
Wind_Speed
18 17 16 15 16 14 14 16 17 18 17 17 16 14 14 14 12 14 7 6 7 6 6 7 8 6 4 4 4 3 2 4 6 7 5 6 8 8 9 9 8 8 7
17 17 17 15 14 14 15 17 20 18 16 14 13 12 12 10 11 16 9 6 7 6 6 7 8 5 5 5 3 4 5 4 6 7 6 6 6 8 9 9 8 7 8
17 17 16 14 15 16 17 17 18 16 14 13 14 14 13 12 10 10 10 7 7 6 9 9 7 6 5 3 4 4 4 4 4 5 6 4 5 6 8 7 9 9 8
18 19 17 15 16 16 15 15 18 17 17 16 15 16 13 10 11 10 10 9 10 11 11 10 7 6 5 5 5 5 5 5 3 4 4 5 5 8 7 9 10 10 11
19 18 15 15 16 16 17 18 18 18 17 18 17 13 13 11 8 12 11 11 12 12 10 8 7 8 10 9 5 5 6 4 4 4 4 5 6 8 10 9 10 10 12
15 16 17 17 17 17 18 20 20 18 17 17 14 14 13 9 9 10 12 11 12 10 9 7 7 7 11 12 9 13 9 7 5 5 5 6 8 8 8 9 10 11 11
17 17 18 18 18 18 19 19 18 17 16 16 15 16 15 13 12 11 10 11 10 9 8 6 6 7 6 5 5 4 5 5 6 7 6 6 9 9 9 11 11 11 11
18 17 18 19 20 21 21 19 18 17 18 15 16 16 15 11 14 13 12 12 10 10 9 8 8 7 8 5 4 3 4 5 7 6 7 7 7 8 9 9 10 11 8
17 17 18 18 21 22 22 21 18 17 17 14 14 16 16 14 14 12 12 11 11 10 9 9 8 8 9 8 4 4 4 5 1 1 4 5 5 5 7 8 7 8 7
17 16 17 17 20 21 19 19 16 17 17 13 16 14 14 15 11 8 9 8 9 8 9 10 13 9 7 9 5 5 6 7 7 7 5 2 3 4 2 5 6 7 6
18 17 17 18 19 19 19 17 16 16 15 16 16 13 13 12 10 8 5 8 7 7 6 6 8 7 6 5 8 8 7 9 5 5 5 5 5 5 5 6 5 4 5
19 19 19 19 13 14 19 16 17 15 14 16 15 12 10 11 10 10 9 12 5 8 7 6 7 5 6 11 7 9 9 9 5 5 5 6 6 7 7 7 6 5 5
19 18 18 18 16 15 17 15 13 14 11 12 11 10 10 9 10 11 13 13 9 9 8 8 6 3 3 7 9 8 6 6 6 7 7 7 7 6 7 6 5 6 5
18 16 16 16 16 15 11 9 11 10 10 10 10 10 10 10 9 9 9 10 10 9 9 6 6 6 7 4 4 6 7 7 7 7 7 7 7 7 6 6 7 7 7
15 13 15 13 15 13 12 9 10 8 7 10 10 9 10 10 8 8 7 7 6 7 5 4 5 5 6 6 6 7 7 7 8 7 7 7 8 8 8 8 7 7 7
12 11 10 11 9 9 9 12 20 16 18 16 14 9 11 15 14 15 14 13 10 4 5 6 6 6 7 6 6 6 7 8 7 7 7 8 9 9 10 9 9 8 8
10 10 10 11 9 10 10 11 13 12 18 18 16 15 16 15 15 16 16 13 6 4 7 7 7 6 5 6 6 6 6 7 7 6 7 8 8 9 10 9 10 10 10
9 16 7 8 9 8 9 10 10 11 13 12 13 12 13 14 14 12 12 11 8 8 7 7 7 5 5 6 6 6 5 6 6 6 7 8 9 9 10 10 10 12 11
9 7 8 7 8 8 8 9 10 11 11 12 11 10 11 14 13 9 4 7 7 7 7 7 6 5 5 5 6 5 5 6 6 6 7 8 8 9 10 10 10 10 10
10 11 9 9 8 8 8 9 10 11 11 10 10 10 10 9 8 8 7 7 7 7 6 6 6 5 6 6 5 5 5 5 6 6 7 8 8 8 9 11 11 12 12
8 8 8 9 8 8 8 9 9 10 10 9 9 8 5 8 7 8 7 7 7 6 6 5 6 6 6 6 6 5 5 5 6 7 7 7 8 8 9 9 10 11 12
7 7 7 8 8 8 9 9 9 10 10 10 8 7 3 7 7 7 7 7 6 6 5 5 6 6 6 6 6 6 6 6 6 7 7 7 7 8 8 9 10 9 11
7 8 8 7 7 8 8 9 9 9 9 9 9 9 7 7 7 8 7 6 6 6 5 5 6 6 5 5 6 6 7 7 6 6 7 7 7 8 8 9 9 10 11
7 8 9 9 9 9 9 8 8 8 9 9 9 8 7 8 8 8 7 6 6 5 5 5 6 7 6 6 6 6 7 7 6 5 7 6 7 7 8 9 9 11 11
5 7 8 8 8 8 9 9 9 9 9 8 8 8 8 8 8 8 7 6 5 5 6 5 5 6 8 9 9 10 9 9 8 9 5 7 8 10 9 8 9 9 10
3 6 7 7 8 8 9 9 9 9 8 7 7 8 8 8 8 7 6 5 5 5 6 5 6 7 7 8 10 9 9 9 9 9 7 6 7 8 8 9 12 8 11
Wind_Direction
192 186 184 185 183 167 150 137 139 143 148 148 147 150 162 158 147 110 130 162 147 119 97 100 92 84 79 80 70 50 360 332 315 327 325 341 330 338 335 335 344 346 350
189 183 180 175 168 154 145 140 148 151 156 152 136 138 134 132 116 109 142 177 123 123 111 99 89 97 92 61 57 17 12 342 329 330 340 328 333 331 332 335 346 353 341
180 173 165 150 143 151 143 146 152 145 134 132 130 130 115 120 107 115 131 118 115 118 101 98 99 96 78 49 33 5 7 358 347 307 318 326 329 348 333 352 349 343 340
177 167 157 146 142 135 132 140 145 136 130 127 124 118 114 113 124 127 122 133 124 100 96 94 93 81 67 42 35 32 32 355 344 305 333 342 339 353 351 355 345 348 339
165 153 134 130 132 129 128 134 134 130 127 123 115 106 117 127 131 134 137 130 116 106 102 100 79 74 65 44 16 36 15 338 337 329 351 337 357 349 350 342 340 335 329
142 127 128 129 129 126 130 134 126 123 121 116 110 114 118 110 104 112 130 118 108 114 120 116 112 93 78 66 60 55 30 358 349 348 347 346 338 342 339 340 331 333 334
128 128 129 130 129 133 132 129 121 122 120 115 116 118 114 117 99 96 100 117 124 125 119 108 85 76 63 74 98 112 93 52 9 327 334 340 316 336 332 326 325 316 315
124 128 131 133 131 134 128 120 124 125 122 121 117 119 120 114 107 108 112 119 116 105 91 80 77 74 49 359 1 333 353 12 4 348 339 331 330 339 332 320 308 305 291
123 127 131 137 135 135 128 124 124 123 118 117 118 121 118 120 115 127 126 121 109 100 89 73 73 61 30 357 339 342 354 12 151 178 315 312 325 342 338 320 359 336 343
123 122 129 130 133 124 124 123 123 118 117 119 110 107 111 121 106 113 131 120 117 109 105 96 63 55 46 11 30 12 9 6 359 6 16 12 351 41 265 344 339 341 354
106 115 111 119 120 110 114 112 116 113 115 110 107 108 111 120 112 95 93 121 119 116 110 94 77 54 40 27 4 25 1 320 359 356 4 12 10 14 4 357 356 331 320
108 107 112 116 114 111 108 112 115 113 111 112 114 109 107 109 107 100 77 75 82 105 95 85 85 58 63 40 33 12 336 300 9 7 11 12 4 5 356 339 327 303 266
103 107 106 107 107 105 109 118 114 111 117 124 119 121 120 117 103 91 87 90 69 94 83 81 88 72 88 97 44 0 326 17 17 14 11 3 351 344 328 330 321 330 318
99 100 105 103 104 106 106 111 112 119 123 124 123 126 127 121 120 118 117 106 117 109 127 85 86 93 79 63 34 33 29 23 8 14 5 354 343 339 345 349 338 347 333
84 93 92 88 92 99 91 94 98 87 113 122 121 128 128 123 100 78 96 118 111 87 114 102 82 66 59 52 47 37 31 23 21 10 5 0 360 356 354 353 348 351 348
81 85 86 91 88 93 97 87 60 76 73 71 67 97 81 88 99 89 89 88 95 165 106 81 69 57 51 41 37 34 31 22 15 8 11 4 2 3 353 359 360 355 351
78 82 80 82 106 106 111 107 106 82 74 68 72 72 85 104 100 100 94 83 58 146 89 82 70 55 48 48 38 28 20 18 360 11 11 13 5 1 357 3 3 355 353
79 74 88 105 102 127 132 129 119 115 111 101 69 88 90 104 103 107 126 142 101 76 73 70 68 56 46 43 45 28 16 13 11 12 14 11 10 3 2 4 6 360 350
109 107 101 102 106 114 120 120 116 115 112 111 115 101 96 96 97 90 72 88 94 88 79 73 64 56 50 43 45 37 15 11 354 12 15 10 11 7 5 1 0 358 346
98 98 109 120 131 128 127 122 123 122 121 125 125 121 133 155 127 106 94 91 85 81 78 78 68 55 50 36 35 32 24 10 12 14 13 9 7 7 7 0 2 1 4
112 117 116 125 124 126 127 128 124 124 128 130 131 131 127 134 125 110 102 92 87 85 79 73 70 60 51 40 31 22 27 24 12 6 6 8 4 5 5 4 4 5 11
128 129 120 116 119 127 126 126 132 130 131 133 131 127 143 121 117 105 99 93 85 80 72 71 68 58 46 37 24 21 20 24 14 3 359 2 5 4 4 7 6 8 8
145 143 138 136 131 122 134 136 136 132 134 131 137 141 134 126 120 109 102 96 93 90 82 73 69 66 52 41 32 20 14 12 359 353 353 357 7 359 7 9 8 5 7
144 145 143 142 148 146 145 141 131 135 144 142 141 138 137 130 122 116 111 101 94 87 80 76 66 57 52 45 36 29 23 4 344 351 351 1 7 5 6 10 12 7 4
143 140 141 140 145 141 143 142 141 145 142 144 139 140 135 130 129 123 116 108 99 95 84 78 69 64 56 48 40 31 25 353 358 319 356 6 11 9 11 11 6 11 13
145 138 138 144 137 141 148 146 145 143 141 139 140 138 138 140 132 127 124 119 113 99 92 81 74 65 60 53 37 16 10 8 2 336 330 14 11 23 2 12 8 12 13